Wind_Speed
53 51 49 45 40 35 35 34 33 32 30 28 27 24 23 21 19 21 20 19 20 21 21 23 23 22 25 25 25 24 22 22 23 20 20 19 18 17 17 18 17 19 18
54 50 51 45 42 40 36 34 33 33 31 31 28 27 24 22 21 22 22 22 22 21 23 25 26 24 25 26 27 28 27 25 26 27 23 22 23 22 22 22 21 22 21
54 52 51 49 47 44 38 35 34 34 34 33 33 31 30 28 25 25 26 26 26 26 24 25 27 28 28 28 28 30 31 31 31 33 31 28 27 27 28 28 28 28 28
52 51 50 49 47 42 38 37 36 34 35 37 35 36 33 30 32 31 28 25 27 29 29 27 26 28 30 32 33 33 32 33 35 38 38 37 34 32 34 34 34 33 33
49 48 47 43 42 40 38 36 34 35 35 37 38 38 39 38 34 32 33 33 34 31 30 30 29 28 28 29 31 33 35 37 38 39 42 43 43 41 42 40 39 38 37
47 46 42 42 41 39 37 35 34 34 34 35 39 40 42 42 43 41 38 36 35 34 35 35 34 34 34 33 33 34 35 37 39 41 43 46 46 46 45 46 46 44 46
46 45 45 43 41 36 35 36 35 34 33 35 36 38 41 43 43 42 42 43 43 43 42 42 41 40 39 39 38 39 41 43 43 43 46 47 48 46 46 47 48 50 53
44 44 44 45 42 38 39 38 36 36 36 35 34 35 37 39 38 38 40 42 43 44 45 44 44 43 42 40 39 40 41 43 43 43 47 51 50 48 49 48 48 49 51
42 42 42 40 37 37 36 35 32 33 33 33 33 32 34 34 33 32 32 35 38 40 40 41 42 42 40 39 39 40 41 43 39 39 40 42 44 48 47 51 54 52 57
40 39 38 34 34 34 31 29 26 27 27 28 28 28 26 27 26 23 25 28 33 35 36 37 39 39 38 36 36 37 41 40 38 40 39 38 35 37 40 46 55 52 54
36 38 36 32 33 33 31 29 28 29 29 31 31 31 31 30 29 27 25 27 28 30 32 32 31 28 28 29 29 32 34 31 31 35 40 45 46 42 39 41 43 48 54
33 35 35 36 36 35 34 32 32 33 34 34 34 34 34 33 30 28 27 27 25 27 26 28 29 27 26 25 27 29 28 29 33 38 43 46 49 50 49 51 53 52 54
27 28 26 25 29 32 33 32 32 31 31 31 32 32 32 29 27 25 22 20 20 24 23 24 25 24 23 24 24 27 31 34 35 37 41 44 46 48 52 55 58 61 62
11 13 17 20 23 25 26 28 28 30 29 29 28 28 27 26 22 19 19 22 21 22 23 24 24 24 24 26 30 32 29 25 26 30 32 35 35 35 38 42 50 52 55
9 10 12 13 14 16 19 22 26 26 25 23 21 17 17 19 18 19 20 21 21 22 22 23 24 24 23 22 24 27 28 30 29 31 30 32 36 37 42 40 45 51 52
14 14 13 13 15 18 20 21 24 24 22 19 18 17 17 16 16 17 18 18 18 18 19 19 20 21 24 26 28 29 27 25 26 28 32 32 27 30 39 36 31 34 46
11 16 16 13 13 12 13 16 19 21 20 18 17 17 17 17 16 16 15 15 15 15 16 17 20 22 21 19 19 18 18 16 15 16 22 26 28 30 26 25 30 34 41
5 7 10 13 12 10 11 14 15 16 15 17 17 16 15 15 14 14 13 11 10 10 12 13 12 11 10 8 8 10 14 17 20 21 21 18 20 21 22 24 26 31 33
1 2 7 7 11 12 13 17 18 15 15 15 12 11 10 11 10 6 7 7 9 9 8 8 8 8 8 10 12 15 17 18 20 19 17 16 19 23 23 20 23 18 24
4 3 3 3 3 9 12 16 19 18 16 16 13 11 9 7 7 6 7 7 7 7 6 6 7 8 9 11 13 14 15 16 17 18 18 19 18 20 20 22 19 11 11
6 6 6 7 9 11 12 16 20 19 17 14 13 10 8 7 8 8 7 7 7 5 5 7 8 9 9 11 11 13 14 15 15 16 17 18 18 17 12 11 10 3 7
7 8 10 11 14 16 17 20 23 21 18 16 13 10 7 7 6 5 3 2 2 4 6 7 9 12 12 13 15 17 16 16 14 15 15 15 16 15 14 13 9 8 1
15 13 13 15 18 20 22 23 21 20 17 14 12 10 10 10 8 6 4 2 2 4 7 9 11 12 13 15 16 17 19 18 17 17 16 14 13 18 15 12 7 9 4
21 15 15 17 18 22 23 23 21 20 17 13 12 11 10 8 7 6 5 4 3 4 6 8 10 11 12 12 15 17 18 19 19 17 16 14 10 11 14 15 9 7 7
22 25 22 19 19 20 21 20 18 16 16 17 16 14 12 10 8 7 5 4 4 5 6 8 10 11 12 13 15 16 18 18 16 16 14 11 10 8 10 12 10 11 10
30 28 27 26 25 23 22 22 22 20 18 17 16 14 12 12 11 10 9 9 9 10 11 12 12 13 13 14 14 16 16 16 15 15 14 14 12 11 12 13 11 14 15
Wind_Direction
225 227 230 231 233 235 236 234 233 233 229 231 232 234 240 238 237 237 237 237 240 240 241 243 240 241 242 245 251 254 258 261 266 275 278 277 276 272 264 261 264 262 264
228 230 231 232 235 234 236 237 234 234 233 231 230 228 229 233 234 239 242 245 245 247 245 245 247 247 247 249 249 252 256 261 268 274 275 277 278 276 272 264 261 263 266
227 229 230 232 234 236 237 239 238 236 234 234 232 233 233 231 234 242 246 250 252 253 255 254 251 250 251 251 252 254 255 257 261 266 271 273 275 276 275 272 264 260 257
228 229 231 233 235 238 240 240 242 241 238 234 235 235 237 237 237 241 246 250 253 254 256 259 259 255 254 254 255 257 259 260 261 266 271 272 270 269 269 268 266 263 261
229 229 231 235 237 237 237 239 241 243 240 238 236 237 238 239 240 242 245 249 251 255 256 257 258 261 264 264 263 263 261 261 261 262 265 268 269 268 266 271 269 271 267
229 229 230 232 232 233 234 235 238 243 243 241 238 238 240 242 244 245 247 249 252 254 256 261 263 264 263 264 267 269 271 268 265 264 266 267 270 271 272 270 271 269 267
227 229 231 229 229 229 232 234 235 238 242 244 243 242 243 245 247 249 250 251 254 256 258 262 264 265 267 269 270 271 270 270 270 270 270 270 273 274 277 276 272 271 270
230 232 232 232 231 231 233 236 239 240 241 243 246 248 249 251 251 251 253 255 256 259 261 263 265 267 270 272 274 275 274 272 271 272 272 277 277 279 278 280 282 280 279
231 234 234 234 236 237 238 240 243 247 248 249 252 252 252 256 258 259 256 255 258 260 264 267 269 272 274 276 279 279 280 279 281 280 279 277 277 280 279 277 273 270 272
230 234 236 237 238 239 241 242 244 247 251 254 255 257 259 261 262 261 257 257 259 262 265 267 270 272 276 278 278 280 280 285 291 292 288 285 283 282 281 275 271 260 263
233 233 238 241 243 244 247 249 251 254 255 257 261 264 267 268 270 269 264 258 260 265 267 272 276 282 283 283 284 282 284 294 292 291 293 293 293 292 287 284 278 272 272
236 240 240 244 245 248 253 252 254 256 257 259 262 265 267 270 272 272 270 267 267 266 269 274 276 280 283 283 283 285 288 294 292 289 287 288 288 290 296 295 291 289 284
233 241 246 249 252 253 252 253 256 258 260 264 265 267 268 271 272 272 271 267 264 264 266 270 274 278 279 278 280 284 287 284 289 287 287 288 292 296 297 293 294 293 288
183 206 228 239 246 249 249 249 250 251 252 252 257 260 268 271 269 263 260 262 261 261 265 266 268 271 273 276 281 285 286 287 288 289 290 295 298 300 300 296 294 286 283
203 209 215 223 228 234 241 244 247 250 253 257 264 275 274 268 266 268 263 260 261 262 264 264 265 266 268 271 276 280 284 284 284 289 292 297 299 299 297 303 297 292 281
237 235 235 236 239 240 243 246 245 244 245 246 254 255 260 270 272 270 262 260 261 258 260 261 266 271 275 277 278 278 279 280 278 282 288 294 297 302 311 311 315 301 292
242 234 234 235 234 235 235 233 234 230 234 240 247 247 253 257 258 268 265 251 251 253 260 267 272 273 276 280 279 280 281 281 289 288 290 302 307 311 313 325 330 329 323
217 200 204 209 214 217 226 230 238 247 250 231 225 234 238 243 236 241 248 265 272 268 262 262 265 271 281 279 266 272 285 292 296 303 310 314 321 325 326 333 343 344 338
228 191 167 187 205 207 228 230 227 219 218 211 201 210 229 248 252 253 267 252 254 247 246 251 259 268 275 279 287 297 303 307 307 309 307 310 315 317 320 322 334 10 26
204 188 157 161 195 211 213 223 204 198 188 178 178 176 179 207 222 230 237 236 238 240 245 259 277 286 297 303 301 301 304 309 310 309 307 307 310 314 314 319 318 325 27
241 240 240 242 222 216 202 196 190 183 173 171 161 166 177 211 220 227 234 247 257 258 273 290 294 295 302 309 304 303 306 308 310 314 321 317 307 309 318 332 325 330 357
262 240 225 205 205 196 190 186 176 174 169 169 166 170 192 213 207 197 191 207 267 294 303 311 318 314 310 311 310 309 308 306 307 314 319 312 302 291 298 304 283 297 262
238 225 220 193 180 174 172 170 172 171 166 165 164 178 178 171 166 167 174 203 270 285 292 299 303 310 313 309 302 301 307 302 300 300 301 299 296 283 277 284 275 231 239
205 216 215 194 183 175 174 172 168 163 160 166 170 170 165 159 142 127 113 86 45 4 343 329 323 319 315 304 304 306 301 294 290 286 284 290 296 275 265 267 251 236 227
193 175 178 186 174 167 160 155 156 156 153 143 132 129 126 124 121 119 101 71 32 10 3 358 354 351 339 328 319 306 296 291 288 285 278 291 306 319 286 259 241 234 229
170 156 146 143 144 145 142 137 128 123 117 111 106 99 93 88 83 76 65 53 38 23 12 2 359 353 347 342 337 323 318 311 272 274 266 277 287 292 289 274 255 251 242
Height
1506 1513 1519 1525 1531 1536 1540 1545 1549 1554 1559 1563 1566 1569 1571 1573 1576 1578 1579 1582 1583 1585 1586 1586 1587 1589 1589 1591 1592 1593 1593 1592 1591 1591 1590 1591 1590 1589 1590 1590 1589 1588 1588
1498 1506 1512 1519 1525 1529 1534 1539 1544 1549 1554 1558 1561 1564 1567 1569 1571 1573 1576 1578 1579 1581 1582 1583 1583 1585 1585 1587 1588 1589 1590 1590 1589 1586 1587 1587 1586 1586 1586 1585 1585 1585 1584
1491 1498 1505 1511 1516 1522 1528 1533 1538 1543 1548 1552 1555 1558 1561 1564 1567 1569 1571 1573 1575 1576 1578 1578 1579 1581 1582 1583 1583 1584 1585 1586 1585 1583 1582 1583 1582 1581 1580 1579 1579 1579 1579
1484 1491 1498 1503 1509 1516 1522 1527 1531 1536 1541 1545 1548 1551 1554 1558 1561 1564 1566 1568 1569 1570 1572 1573 1574 1574 1576 1577 1578 1579 1579 1580 1579 1577 1574 1574 1575 1575 1573 1572 1571 1571 1572
1477 1484 1490 1498 1504 1510 1515 1519 1524 1528 1533 1537 1541 1543 1547 1550 1553 1556 1559 1561 1563 1564 1565 1566 1567 1568 1569 1571 1571 1572 1573 1572 1572 1570 1567 1565 1565 1565 1564 1564 1564 1563 1562
1470 1476 1484 1491 1497 1502 1507 1512 1516 1520 1524 1528 1531 1535 1537 1540 1544 1548 1552 1554 1556 1557 1557 1558 1560 1561 1562 1564 1564 1564 1564 1563 1562 1562 1560 1558 1557 1556 1557 1556 1555 1555 1551
1464 1471 1477 1484 1489 1494 1500 1504 1508 1512 1516 1518 1522 1526 1528 1531 1535 1539 1543 1546 1547 1548 1549 1550 1551 1551 1553 1555 1556 1556 1555 1553 1553 1554 1551 1549 1546 1547 1549 1548 1547 1545 1541
1459 1465 1471 1477 1481 1487 1492 1496 1500 1504 1508 1511 1514 1517 1520 1522 1527 1531 1534 1536 1537 1537 1538 1539 1540 1542 1543 1545 1546 1545 1544 1542 1544 1545 1543 1539 1538 1540 1538 1538 1537 1536 1532
1454 1458 1464 1470 1475 1480 1485 1489 1493 1497 1500 1503 1506 1510 1512 1515 1518 1522 1526 1527 1526 1526 1527 1527 1529 1530 1533 1536 1535 1534 1531 1529 1533 1533 1532 1531 1529 1527 1528 1529 1525 1524 1517
1448 1452 1459 1465 1470 1474 1478 1483 1487 1490 1493 1496 1499 1502 1505 1507 1511 1515 1517 1518 1517 1517 1519 1519 1520 1521 1524 1526 1525 1524 1520 1520 1521 1518 1519 1519 1520 1518 1518 1517 1516 1510 1507
1446 1451 1455 1460 1464 1468 1474 1478 1481 1485 1488 1490 1493 1495 1497 1500 1503 1506 1509 1509 1510 1510 1509 1510 1511 1513 1515 1515 1515 1514 1512 1514 1513 1511 1508 1505 1502 1502 1505 1504 1503 1500 1494
1442 1446 1451 1454 1459 1464 1468 1473 1475 1478 1481 1484 1486 1488 1489 1492 1494 1497 1499 1500 1502 1502 1502 1504 1505 1506 1507 1507 1507 1506 1506 1505 1504 1503 1501 1497 1494 1491 1487 1483 1483 1484 1480
1438 1442 1445 1450 1453 1458 1461 1466 1468 1471 1473 1475 1477 1479 1481 1485 1487 1489 1491 1493 1495 1494 1496 1497 1498 1498 1499 1498 1499 1499 1499 1497 1497 1495 1491 1488 1486 1483 1479 1474 1469 1463 1457
1434 1437 1440 1443 1447 1450 1454 1458 1462 1465 1467 1469 1471 1474 1476 1477 1480 1482 1484 1486 1488 1489 1490 1490 1492 1492 1492 1491 1491 1492 1491 1489 1487 1485 1482 1479 1476 1474 1470 1467 1460 1453 1446
1432 1434 1436 1440 1443 1445 1448 1450 1453 1457 1460 1463 1465 1468 1470 1471 1474 1476 1477 1479 1481 1483 1483 1484 1484 1484 1485 1485 1485 1484 1483 1481 1479 1476 1473 1470 1467 1464 1460 1457 1449 1442 1434
1430 1432 1434 1437 1439 1441 1443 1446 1449 1452 1455 1459 1461 1463 1465 1467 1469 1471 1472 1473 1475 1477 1477 1478 1478 1478 1478 1477 1476 1476 1474 1473 1472 1469 1466 1464 1460 1456 1451 1445 1439 1433 1424
1426 1427 1430 1432 1434 1438 1440 1442 1444 1447 1451 1454 1457 1459 1460 1462 1463 1465 1466 1468 1469 1471 1472 1472 1472 1472 1471 1469 1468 1467 1467 1466 1465 1463 1461 1458 1453 1449 1444 1438 1432 1424 1413
1424 1424 1424 1427 1431 1435 1438 1440 1443 1445 1448 1450 1453 1454 1455 1456 1459 1460 1462 1464 1465 1466 1467 1467 1466 1466 1465 1464 1464 1463 1462 1461 1460 1458 1455 1451 1449 1445 1441 1437 1430 1420 1409
1424 1424 1423 1425 1428 1431 1434 1437 1440 1442 1445 1447 1449 1451 1453 1455 1456 1458 1459 1461 1462 1463 1463 1463 1463 1462 1462 1461 1461 1459 1458 1456 1454 1452 1449 1447 1444 1440 1438 1433 1430 1422 1411
1424 1424 1422 1424 1426 1428 1431 1435 1438 1440 1443 1446 1448 1451 1452 1454 1456 1457 1458 1459 1459 1460 1460 1460 1460 1459 1458 1458 1457 1455 1454 1452 1449 1447 1445 1443 1441 1439 1434 1429 1428 1424 1415
1425 1424 1423 1424 1425 1427 1430 1433 1436 1439 1442 1445 1447 1449 1451 1453 1454 1456 1456 1457 1457 1457 1456 1456 1455 1454 1453 1452 1452 1450 1449 1447 1445 1443 1440 1439 1437 1437 1432 1429 1428 1424 1419
1425 1424 1423 1423 1424 1426 1428 1431 1435 1438 1441 1444 1445 1447 1449 1451 1452 1454 1455 1455 1455 1455 1454 1454 1452 1450 1449 1448 1447 1445 1444 1443 1440 1438 1436 1436 1433 1432 1431 1429 1428 1424 1422
1423 1422 1422 1422 1424 1426 1429 1432 1434 1437 1440 1442 1444 1446 1447 1449 1450 1452 1453 1453 1453 1452 1451 1449 1448 1447 1446 1445 1444 1442 1440 1438 1437 1434 1433 1431 1429 1430 1427 1426 1426 1425 1423
1420 1419 1421 1422 1423 1426 1428 1431 1435 1437 1439 1441 1443 1444 1446 1447 1448 1449 1450 1449 1449 1448 1447 1447 1445 1443 1442 1442 1440 1437 1435 1433 1432 1431 1430 1427 1424 1424 1424 1425 1423 1424 1423
1416 1417 1419 1421 1424 1427 1430 1432 1434 1435 1439 1441 1443 1445 1446 1446 1446 1447 1447 1447 1447 1447 1445 1444 1442 1440 1437 1436 1435 1434 1431 1429 1428 1427 1426 1425 1423 1421 1422 1421 1421 1422 1423
1411 1415 1417 1420 1424 1430 1434 1437 1438 1441 1443 1444 1445 1448 1450 1449 1447 1447 1446 1445 1445 1446 1445 1445 1441 1439 1437 1435 1432 1430 1427 1424 1423 1423 1422 1422 1421 1421 1421 1421 1418 1420 1421